Location: Tucson
(32.2217°N, 110.9265°W)
Time: 05:06:45
(UTC-07:00)

Oscar 11 - Pass Details

Date: 06 December 2021
Orbit: 611 x 625 km, 97.6° (Epoch: 19 January)

Event Time Altitude Azimuth Distance (km) Brightness Sun altitude
Rises 06:38:46 0° 352° (N) 2,901 10.2 -7.1°
Reaches altitude 10° 06:41:28 10° 335° (NNW) 1,988 9.2 -6.5°
Maximum altitude 06:44:31 19° 290° (WNW) 1,480 8.4 -6.0°
Drops below altitude 10° 06:47:32 10° 245° (WSW) 1,974 9.3 -5.4°
Sets 06:50:13 0° 227° (SW) 2,872 10.2 -4.9°
